Погода в Рязани

Погода в Рязани : погода сейчас, прогноз погоды и архив. Всё, что Вы хотите узнать о погоде в Рязани!

Хотите узнать прогноз погоды в Рязани? Тогда Вам сюда: Погода в Рязани

Поиск расширенной информации на нашем сайте:

Другие новости

Новости СМИ2

Главная страница сайта

Новости сайта

03.07.2017

Напоминаем, что на нашем специализированном сайте Метеоцентр.Азия вы можете получить высокодетализированные автоматические прогнозы погоды по пунктам России, СНГ и мира в авиационном формате (включающие направление и скорость ветра, видимость, явления погоды, количество и форму облачности, нижнюю и верхнюю границу облачности).

Рекомендуем: Информация medicine на нашем сайте.

Погода в Рязани - сегодня

Время (UTC), дата Ветер
(°,м/с) 
Видим.   Явления Облачность Т
(°С)
Тd
(°С)
f(%) Тe
(°С)
Pmin
(гПа)
dP
(гПа)
Po
(мм)
O2
(г/м3)
Тmin Tmax R s Состояние
почвы
12 16.04.18 190 (Ю) 20000 м    8/0 средняя, верхняя 
[Ac trans|Ci fib]
+19.7 -0.7 25 +21  1017.9  -1.5  750  282           
18 16.04.18 180 (Ю) 20000 м    10/0 средняя 
[As op]
+12.2 +2.4 51 +13  1017.3  0.2  749  288           
00 17.04.18 240 (ЮЗ) 10 км  слаб. ливневой дождь  10/8 300 м кучево-дожд., средняя 
[Cb cap|As op]
+10.1 +5.1 71 +11  1016.9  0.2  748  290           
03 17.04.18 тихо () {10}  4000 м  слаб. ливневой дождь{гроза}  10/8 300 м кучево-дожд., средняя 
[Cb cap|Ac trans]
+9.8 +9.5 98 +10  1017.2  0.3  749  289  +9.7      мокрая 
09 17.04.18 тихо ()   20000 м  {ливн. осадки}  9/3 600 м верхняя 
[Cu hum|Ci fib]
+17.5 +8 54 +18  1017  0.3  749  282           
12 17.04.18 230 (ЮЗ) 20000 м    9/1 600 м верхняя 
[Cu hum|Ci fib]
+19.4 +5.7 41 +21  1016.2  -0.7  748  281           
18 17.04.18 тихо ()   20000 м    10/0 средняя 
[Ac cast]
+13.8 +6.9 63 +14  1015.3  -0.3  747  286           
21 17.04.18 140 (ЮВ) 20000 м  в посл. час ливневой дождь  10/10 300 м 
[Sc]
+13.6 +7.9 68 +15  1014.6  -0.7  747  285           
00 18.04.18 160 (Ю) 10 км  слаб. ливневой дождь  10/10 300 м кучево-дожд. 
[Cb cap]
+13.2 +7.9 70 +14  1012.6  -1.9  745  285           
03 18.04.18 200 (Ю) 20000 м  {ливн. осадки}  10/10 300 м 
[Sc diur, vesp]
+11.7 +6.2 69 +12  1011.5  -1.2  745  287  +11.7    0.0    мокрая 
09 18.04.18 170 (Ю) 4000 м  слаб. ливневой дождь  10/10 300 м кучево-дожд. 
[Cb cap]
+9.1 +8.6 97 +10  1009  -1.5  743  288           
12 18.04.18 180 (Ю) 4000 м  слаб. ливневой дождь  10/10 300 м кучево-дожд. 
[Cb cap]
+9 +8.5 97 +9  1007.7  -1.3  742  288           
18 18.04.18 300 (СЗ) 4000 м  слаб. дождь{ливн. осадки}  10/10 300 м 
[Ns]
+6.8 +6.6 99 +6  1005.9  -0.8  740  290           
21 18.04.18 320 (СЗ) 4000 м  слаб. дождь  10/10 300 м 
[Ns]
+6.5 +6.2 98 +6  1003.8  -2.1  739  290           
00 19.04.18 360 (С) 4000 м  слаб. дождь  10/10 300 м 
[Ns]
+7.4 +7.1 98 +7  1002.1  -1.6  737  288           
03 19.04.18 360 (С) 4000 м  слаб. дождь  10/10 300 м 
[Ns]
+7.4 +7.1 98 +7  1000.2  -1.9  736  287  +6.5    10    мокрая 
18 19.04.18 020 (С) 4000 м  слаб. дождь  10/10 300 м 
[Ns]
+7.2 +6.7 97 +6  1005.6  2.2  740  289           
21 19.04.18 010 (С) н/о    н/о 
+7.2 +6.3 94 +6  1006.3  0.7  740  290           
00 20.04.18 010 (С) 20000 м  {дождь}  10/0 средняя 
[Ac und]
+6.5 +3 78 +5  1007.1  0.7  741  291           
03 20.04.18 360 (С) 20000 м    4/0 верхняя 
[Ci fib]
+4.9 +0.9 75 +4  1009  1.8  742  294  +4.8    0.7    мокрая 
06 20.04.18 010 (С) 20000 м    ясно 
+9.3 +0.4 54 +8  1010.9  2.1  744  290           
09 20.04.18 030 (СВ) 4{12}  20000 м    3/3 600 м 
[Cu hum]
+12.8 -1.6 37 +12  1012  1.3  745  287           
12 20.04.18 020 (С) 4{11}  20000 м    4/4 600 м 
[Cu hum]
+15 -1.7 32 +15  1011.8  745  285           
18 20.04.18 050 (СВ) 20000 м    6/0 средняя 
[Ac trans]
+8.5 +0.1 55 +10  1012.7  0.6  745  291           
21 20.04.18 тихо ()   20000 м    10/0 средняя 
[Ac trans]
+6.3 +0.7 67 +6  1012.1  -0.7  745  293           
Время (UTC), дата Ветер
(°,м/с) 
Видим.   Явления Облачность Т
(°С)
Тd
(°С)
f(%) Тe
(°С)
Pmin
(гПа)
dP
(гПа)
Po
(мм)
O2
(г/м3)
Тmin Tmax R s Состояние
почвы

Для получения пояснительной информации подведите курсор к названию столбца.

ПОГОДА в Рязани - архив

Всё, что Вы хотите узнать о погоде в Рязани - удобно и подробно!

Выберите нужную дату (начиная с 1 января 2015* года) и нажмите кнопку "Найти".
Будут отображены архивные сводки погоды по пункту Рязань, начиная с указанной даты.


Отображать данные в формате CSV (для использования в таблицах Excel)


Внимание! Наш архив погоды предназначен исключительно для личного некоммерческого использования в познавательных целях. Если Вам необходимы официальные справки о состоянии погоды (для производственных, юридических, коммерческих и т.п. целей), обращайтесь в органы Росгидромета.

*Примечание: данная дата относится к архиву по метеостанциям СССР (Россия, СНГ, Балтия).
Архив по метеостанциям Зарубежной Европы и Азии (кроме Китая) хранится 10 дней, по другим регионам земного шара (Китай, Африка, Америка, Австралия, Океания) - 1 день.

Рязань - район местоположения метеостанции


Название, широта, долгота, высота метеостанции:
Рязань 54.6°ш. 39.7°д. 158 м над ур. моря [Российская Федерация]

Дополнительная информация

В oтличие oт бoльшинства пoгoдных сайтoв мы публикуем пoдрoбную метеoинфoрмацию в детальнoм прoфессиoнальнoм фoрмате.

Характеристики температуры и влажнoсти вoздуха измеряются на высoте 2 м в тени вдали oт зданий и деревьев.
Скoрoсть ветра измеряется на высoте 10 м (на урoвне рoста челoвека скoрoсть ветра ниже в 1.5-2 раза). Если метеoстанция нахoдится в гoрoде или в лесу, тo скoрoсть ветра занижена на 2-4 м/с пo сравнению с oткрытым местoм. Скoрoсть ветра над акватoриями крупных рек и oзёр, а также на вершинах хoлмoв на 2-5 м/с выше, чем в oбычных услoвиях.
Атмoсфернoе давление в разных тoчках местнoсти мoжет значительнo oтличаться oт давления на метеoстанции, в зависимoсти oт услoвий рельефа (при пoдъёме на 10 м давление пoнижается примернo на 1 мм рт.ст.).